This is the latest recevied weather packets stored in our database for station/object DB0HOL-4. If no packets are shown the sender has not sent any weather packets the latest 10 day(s).
| Time | Temp. | Humidity | Pressure | Rain* | Wind** | Luminosity | Snow |
|---|---|---|---|---|---|---|---|
| 1778190997 | 6.11° C | 99% | 1016.5 hPa | 0 mm | - | 0 W/m² | - |
| 1778189197 | 6.11° C | 99% | 1016.5 hPa | 0 mm | - | 0 W/m² | - |
| 1778187397 | 6.11° C | 99% | 1016.2 hPa | 0 mm | - | 0 W/m² | - |
| 1778185597 | 6.11° C | 99% | 1016.2 hPa | 0 mm | - | 0 W/m² | - |
| 1778183798 | 6.11° C | 99% | 1015.9 hPa | 0 mm | - | 0 W/m² | - |
| 1778181998 | 6.11° C | 99% | 1015.9 hPa | 0 mm | - | 21 W/m² | - |
| 1778180197 | 6.11° C | 99% | 1015.9 hPa | 0 mm | - | 21 W/m² | - |
| 1778178397 | 6.11° C | 99% | 1015.5 hPa | 0 mm | - | 51 W/m² | - |
| 1778176597 | 6.11° C | 99% | 1015.2 hPa | 0 mm | - | 160 W/m² | - |
| 1778174797 | 6.11° C | 99% | 1015.2 hPa | 0 mm | - | 203 W/m² | - |
| 1778172998 | 6.11° C | 99% | 1014.9 hPa | 0 mm | - | 680 W/m² | - |
| 1778171197 | 6.11° C | 99% | 1014.9 hPa | 0 mm | - | 324 W/m² | - |
| 1778169399 | 6.11° C | 99% | 1014.5 hPa | 0 mm | - | 467 W/m² | - |
| 1778167597 | 6.11° C | 99% | 1014.9 hPa | 0 mm | - | 346 W/m² | - |
| 1778165797 | 6.11° C | 99% | 1014.5 hPa | 0 mm | - | 147 W/m² | - |
| 1778163997 | 6.11° C | 99% | 1014.5 hPa | 0 mm | - | 615 W/m² | - |
| 1778162199 | 6.11° C | 99% | 1014.5 hPa | 0 mm | - | 101 W/m² | - |
| 1778160397 | 6.11° C | 99% | 1014.2 hPa | 0 mm | - | 741 W/m² | - |
| 1778158597 | 6.11° C | 99% | 1013.8 hPa | 0 mm | - | 893 W/m² | - |
| 1778156797 | 5.56° C | 99% | 1013.5 hPa | 0 mm | - | 850 W/m² | - |
| 1778154997 | 5.56° C | 99% | 1013.2 hPa | 0 mm | - | 949 W/m² | - |
| 1778153197 | 5.56° C | 99% | 1013.5 hPa | 0 mm | - | 646 W/m² | - |
| 1778151397 | 5.56° C | 99% | 1013.2 hPa | 0 mm | - | 724 W/m² | - |
| 1778149597 | 5.56° C | 99% | 1012.8 hPa | 0 mm | - | 581 W/m² | - |
| 1778147797 | 5.56° C | 99% | 1012.5 hPa | 0 mm | - | 554 W/m² | - |
* Rain latest hour (hover to see other rain measurements)
** Current wind speed in m/s (hover to see current wind gust speed)